KF5CFW Weather Reports


Display with metric or nautical units.
time (UTC)temp
F
wind
direction
speed
MPH
gust
MPH
rain 1hr
in
rain 24hr
in
rain mn
in
humidity
%
barometer
mb
20260831004515 96 148 0.0 1.0 0.00 0.00 0.00 34 1010.4
20260831003016 96 148 0.0 1.0 0.00 0.00 0.00 33 1010.4
20260831001523 97 158 0.0 1.0 0.00 0.00 0.00 31 1010.4
20260831000012 98 133 0.0 1.0 0.00 0.00 0.00 31 1010.5
20260830234519 99 135 0.0 1.0 0.00 0.00 0.00 30 1010.6
20260830233011 101 72 0.0 1.0 0.00 0.00 0.00 29 1010.6
20260830231512 102 144 0.0 1.0 0.00 0.00 0.00 29 1010.5
20260830230009 104 152 0.0 2.0 0.00 0.00 0.00 27 1010.6
20260830224507 105 127 0.0 1.0 0.00 0.00 0.00 25 1010.7
20260830223009 105 195 0.0 1.0 0.00 0.00 0.00 26 1010.8
20260830221506 105 148 0.0 2.0 0.00 0.00 0.00 26 1010.8
20260830220005 106 109 0.0 2.0 0.00 0.00 0.00 24 1010.9
20260830214503 107 162 0.0 2.0 0.00 0.00 0.00 25 1010.9
20260830213004 106 179 0.0 2.0 0.00 0.00 0.00 25 1011.0
20260830211501 106 141 0.0 3.0 0.00 0.00 0.00 25 1011.2
20260830210059 106 172 0.0 3.0 0.00 0.00 0.00 25 1011.4
20260830204600 105 176 0.0 2.0 0.00 0.00 0.00 27 1011.5
20260830203056 106 162 0.0 3.0 0.00 0.00 0.00 26 1011.8
20260830201552 106 152 0.0 2.0 0.00 0.00 0.00 26 1011.8
20260830200048 106 153 0.0 2.0 0.00 0.00 0.00 27 1012.1
20260830194554 105 153 0.0 3.0 0.00 0.00 0.00 27 1012.3
20260830193042 105 118 0.0 2.0 0.00 0.00 0.00 28 1012.6
20260830191537 105 159 0.0 2.0 0.00 0.00 0.00 27 1012.7
20260830190032 104 156 0.0 2.0 0.00 0.00 0.00 30 1012.9
20260830184526 104 46 0.0 1.0 0.00 0.00 0.00 29 1013.0
20260830183025 103 210 0.0 2.0 0.00 0.00 0.00 30 1013.3
20260830181517 103 187 0.0 2.0 0.00 0.00 0.00 30 1013.4
20260830180015 103 151 0.0 3.0 0.00 0.00 0.00 31 1013.7
20260830174512 103 139 0.0 3.0 0.00 0.00 0.00 32 1013.9
20260830173008 102 354 0.0 2.0 0.00 0.00 0.00 33 1014.2
20260830171505 101 201 0.0 2.0 0.00 0.00 0.00 33 1014.4
20260830170100 100 167 0.0 1.0 0.00 0.00 0.00 37 1014.6
20260830164556 99 249 0.0 3.0 0.00 0.00 0.00 38 1014.8
20260830163058 98 200 0.0 1.0 0.00 0.00 0.00 40 1015.0
20260830161605 96 231 0.0 2.0 0.00 0.00 0.00 43 1015.1
20260830160046 95 163 0.0 2.0 0.00 0.00 0.00 46 1015.1
20260830154541 93 156 0.0 2.0 0.00 0.00 0.00 49 1015.0
20260830153038 92 153 0.0 2.0 0.00 0.00 0.00 52 1015.0
20260830151542 91 273 0.0 1.0 0.00 0.00 0.00 54 1015.0
20260830150030 89 234 0.0 1.0 0.00 0.00 0.00 56 1015.1
20260830144534 88 152 0.0 1.0 0.00 0.00 0.00 57 1015.0
20260830143029 87 304 0.0 0.0 0.00 0.00 0.00 58 1015.0
20260830141524 85 298 0.0 0.0 0.00 0.00 0.00 59 1015.1
20260830140026 84 157 0.0 1.0 0.00 0.00 0.00 58 1015.1
20260830134521 83 158 0.0 0.0 0.00 0.00 0.00 56 1015.0
20260830133024 81 218 0.0 1.0 0.00 0.00 0.00 49 1014.9
20260830131520 80 188 0.0 0.0 0.00 0.00 0.00 42 1014.8
20260830130017 79 189 0.0 0.0 0.00 0.00 0.00 40 1014.7
20260830124527 79 188 0.0 0.0 0.00 0.00 0.00 39 1014.5
20260830123013 79 188 0.0 0.0 0.00 0.00 0.00 43 1014.3
20260830121510 79 188 0.0 0.0 0.00 0.00 0.00 46 1014.1
20260830120008 79 188 0.0 0.0 0.00 0.00 0.00 50 1014.0
20260830114504 80 188 0.0 0.0 0.00 0.00 0.00 53 1013.8
20260830113001 80 188 0.0 0.0 0.00 0.00 0.00 55 1013.5
20260830111559 81 188 0.0 0.0 0.00 0.00 0.00 56 1013.3
20260830110059 81 253 0.0 0.0 0.00 0.00 0.00 58 1013.2
20260830104602 81 252 0.0 0.0 0.00 0.00 0.00 59 1013.1
20260830103053 82 263 0.0 0.0 0.00 0.00 0.00 59 1013.0
20260830101600 82 115 0.0 0.0 0.00 0.00 0.00 59 1012.9
20260830100053 82 114 0.0 0.0 0.00 0.00 0.00 60 1012.9
20260830094556 82 113 0.0 0.0 0.00 0.00 0.00 60 1012.9
20260830093052 83 113 0.0 0.0 0.00 0.00 0.00 60 1012.8
20260830091548 83 113 0.0 0.0 0.00 0.00 0.00 60 1012.9
20260830090046 83 112 0.0 0.0 0.00 0.00 0.00 59 1012.8
20260830084545 83 18 0.0 0.0 0.00 0.00 0.00 59 1012.8
20260830083049 84 27 0.0 0.0 0.00 0.00 0.00 58 1012.8
20260830081542 84 348 0.0 1.0 0.00 0.00 0.00 57 1012.8
20260830080046 84 210 0.0 0.0 0.00 0.00 0.00 56 1012.8
20260830074541 85 281 0.0 1.0 0.00 0.00 0.00 55 1012.9
20260830073043 85 166 0.0 0.0 0.00 0.00 0.00 54 1012.9
20260830071554 86 166 0.0 1.0 0.00 0.00 0.00 53 1012.9
20260830070033 86 159 0.0 1.0 0.00 0.00 0.00 52 1012.9
20260830064529 87 157 0.0 0.0 0.00 0.00 0.00 51 1013.0
20260830063027 87 155 0.0 1.0 0.00 0.00 0.00 50 1013.0
20260830061526 88 155 0.0 1.0 0.00 0.00 0.00 49 1013.0
20260830060025 88 157 0.0 1.0 0.00 0.00 0.00 49 1013.0
20260830054534 88 155 0.0 1.0 0.00 0.00 0.00 49 1013.0
20260830053022 88 155 0.0 0.0 0.00 0.00 0.00 48 1013.1
20260830051523 88 156 0.0 1.0 0.00 0.00 0.00 47 1013.0
20260830050030 89 155 0.0 0.0 0.00 0.00 0.00 46 1013.0
20260830044518 89 156 0.0 0.0 0.00 0.00 0.00 44 1013.0
20260830043018 90 156 0.0 1.0 0.00 0.00 0.00 43 1013.1
20260830041534 90 156 0.0 1.0 0.00 0.00 0.00 42 1013.0
20260830040017 91 157 0.0 1.0 0.00 0.00 0.00 42 1012.9
20260830034516 91 150 0.0 1.0 0.00 0.00 0.00 41 1012.8
20260830033015 91 157 0.0 1.0 0.00 0.00 0.00 41 1012.7
20260830031515 92 130 0.0 0.0 0.00 0.00 0.00 41 1012.6
20260830030016 92 141 0.0 1.0 0.00 0.00 0.00 41 1012.5
20260830024514 93 148 0.0 0.0 0.00 0.00 0.00 40 1012.4
20260830023014 93 142 0.0 0.0 0.00 0.00 0.00 40 1012.3
20260830021536 94 158 0.0 0.0 0.00 0.00 0.00 39 1012.1
20260830020013 94 155 0.0 1.0 0.00 0.00 0.00 38 1012.0
20260830014513 95 153 0.0 1.0 0.00 0.00 0.00 37 1011.8
20260830013012 95 156 0.0 1.0 0.00 0.00 0.00 37 1011.6
20260830011514 95 152 0.0 1.0 0.00 0.00 0.00 35 1011.5
20260830010010 96 152 0.0 0.0 0.00 0.00 0.00 34 1011.4